User: anonymous   Login
Location: Caltech
(34.1382°N, 118.1253°W)
Time: 01:34:58
(UTC-07:00)
Language:

Cosmos 2251 Rocket - Orbit

View from above orbital plane
View from above orbital plane
View from above satellite
View from above satellite

Ground track
Ground track

The orbit data is extracted from the following two-line orbital elements,

1 22676U 93036B   16208.93969784 -.00000029 +00000-0 -11498-5 0  9997
2 22676 074.0419 056.6946 0018706 166.0686 194.0985 14.33883293208449
Epoch (UTC): 26 July 2016 22:33:09
Eccentricity: 0.0018706
inclination: 74.0419°
perigee height: 765 km
apogee height: 792 km
right ascension of ascending node: 56.6946°
argument of perigee: 166.0686°
revolutions per day: 14.33883293
mean anomaly at epoch: 194.0985°
orbit number at epoch: 20844

The dashed part of the orbit path shows where the satellite is in the earth's shadow,  

DLR